Powrót do katalogu

FENGYUN 1C DEB

AktywnySSO
NORAD 31732·DEBRIS·🇨🇳 China

Wystrzelony May 10, 1999 z Taiyuan Satellite Launch Center

Loading…

Następne Przeloty (najbliższe 24 godziny)

TLE

ŚwieżeSource: Space-Track

Epoka: Sep 12, 2026, 12:46 UTC

1 31732U 99025CEF 26255.53263135  .00000311  00000-0  18889-3 0  9991
2 31732  98.5463 283.0267 0040281 181.9080 178.1946 14.12544168681954

Śledź FENGYUN 1C DEB w czasie rzeczywistym z AllMySat

Download on the App Store